Somerville, NJ

12:35 PM EST on November 20, 2019 (GMT -0500)
Somerset

Weather History for KSMQ - September, 2019

Change the Weather History Date:

Monday, September 23, 2019

  Actual Average Record
Temperature  
Mean Temperature 76 °F -  
Max Temperature 91 °F 72 °F 92 °F (1970)
Min Temperature 60 °F 49 °F 35 °F (1947)
Cooling Degree Days 10    
Growing Degree Days 26 (Base 50)    
Moisture  
Dew Point 62 °F    
Average Humidity 78    
Maximum Humidity 100    
Minimum Humidity 35    
Precipitation  
Precipitation 0.01 in - - ()
Sea Level Pressure  
Sea Level Pressure 29.87 in    
Wind  
Wind Speed 1 mph (SSW)    
Max Wind Speed 8 mph    
Max Gust Speed -    
Visibility 6 miles    
Events Rain    
Averages and records for this station are not official NWS values.
T = Trace of Precipitation, MM = Missing Value Source: NWS Daily Summary

Daily Weather History Graph

Daily Weather History Graph

Search for Another Location

Airport or City:

Astronomy

Sep. 23, 2019 Rise Set
Actual Time 6:46 AM EDT 6:54 PM EDT
Civil Twilight 6:19 AM EDT 7:21 PM EDT
Nautical Twilight 5:47 AM EDT 7:53 PM EDT
Astronomical Twilight 5:15 AM EDT 8:26 PM EDT
Moon 12:25 AM EDT (9/23) 3:47 PM EDT (9/23)
Length of Visible Light 13h 02m
Length of Day
12h 07m
Waning Crescent, 33% of the Moon is Illuminated
Sep 23
Waning Crescent
Sep 28
New
Oct 5
First Quarter
Oct 13
Full
Oct 21
Last Quarter

Hourly Weather History & Observations

Time (EDT) Temp. Heat Index Dew Point Humidity Pressure Visibility Wind Dir Wind Speed Gust Speed Precip Events Conditions
12:53 AM 66.0 °F - 64.0 °F 93% 29.98 in 5.0 mi Calm Calm - N/A   Clear
1:53 AM 64.0 °F - 63.0 °F 96% 29.96 in 5.0 mi Calm Calm - N/A   Clear
2:49 AM 62.6 °F - 62.6 °F 100% 29.95 in 1.8 mi Calm Calm - N/A   Clear
2:53 AM 63.0 °F - 62.1 °F 97% 29.94 in 1.8 mi Calm Calm - N/A   Clear
2:59 AM 63.0 °F - 62.1 °F 97% 29.95 in 3.0 mi Calm Calm - N/A   Clear
3:36 AM 63.0 °F - 61.0 °F 93% 29.94 in 2.0 mi Calm Calm - N/A   Clear
3:53 AM 63.0 °F - 61.0 °F 93% 29.94 in 3.0 mi Calm Calm - N/A   Clear
4:07 AM 62.1 °F - 61.0 °F 96% 29.93 in 1.8 mi Calm Calm - N/A   Clear
4:53 AM 61.0 °F - 60.1 °F 97% 29.93 in 2.5 mi Calm Calm - N/A   Clear
5:13 AM 61.0 °F - 60.1 °F 97% 29.93 in 1.0 mi Calm Calm - N/A   Clear
5:23 AM 61.0 °F - 60.1 °F 97% 29.92 in 3.0 mi Calm Calm - N/A   Clear
5:51 AM 60.8 °F - 59.0 °F 94% 29.92 in 1.5 mi Calm Calm - N/A   Clear
5:53 AM 60.1 °F - 59.0 °F 96% 29.92 in 1.2 mi Calm Calm - N/A   Clear
6:17 AM 61.0 °F - 59.0 °F 93% 29.92 in 2.5 mi Calm Calm - N/A   Clear
6:26 AM 61.0 °F - 60.1 °F 97% 29.92 in 1.5 mi Calm Calm - N/A   Clear
6:30 AM 61.0 °F - 60.1 °F 97% 29.93 in 3.0 mi Calm Calm - N/A   Clear
6:53 AM 61.0 °F - 60.1 °F 97% 29.92 in 4.0 mi Calm Calm - N/A   Clear
7:53 AM 63.0 °F - 61.0 °F 93% 29.93 in 6.0 mi Calm Calm - N/A   Partly Cloudy
8:53 AM 68.0 °F - 66.0 °F 93% 29.92 in 5.0 mi Calm Calm - N/A   Partly Cloudy
9:53 AM 73.9 °F - 66.9 °F 79% 29.91 in 8.0 mi Variable 4.6 mph - N/A   Clear
10:53 AM 79.0 °F - 66.9 °F 66% 29.89 in 9.0 mi South 5.8 mph - N/A   Clear
11:53 AM 84.0 °F 87.0 °F 68.0 °F 58% 29.87 in 9.0 mi South 5.8 mph - N/A   Clear
12:53 PM 88.0 °F 90.3 °F 66.0 °F 48% 29.83 in 10.0 mi South 6.9 mph - N/A   Clear
1:53 PM 90.0 °F 90.6 °F 63.0 °F 40% 29.80 in 10.0 mi Variable 5.8 mph - N/A   Clear
2:53 PM 91.9 °F 91.8 °F 61.0 °F 35% 29.78 in 10.0 mi Variable 5.8 mph - N/A   Scattered Clouds
3:53 PM 90.0 °F 89.1 °F 59.0 °F 35% 29.75 in 10.0 mi West 8.1 mph - N/A   Mostly Cloudy
4:53 PM 87.1 °F 86.7 °F 60.1 °F 40% 29.75 in 10.0 mi Variable 4.6 mph - N/A   Clear
5:53 PM 86.0 °F 85.4 °F 59.0 °F 40% 29.74 in 10.0 mi Variable 3.5 mph - N/A   Overcast
6:53 PM 82.9 °F 83.2 °F 60.1 °F 46% 29.74 in 10.0 mi WNW 3.5 mph - N/A   Overcast
7:53 PM 81.0 °F 81.9 °F 62.1 °F 52% 29.75 in 10.0 mi Variable 4.6 mph - 0.00 in   Overcast
8:53 PM 79.0 °F - 62.1 °F 56% 29.75 in 10.0 mi South 3.5 mph - N/A   Overcast
9:53 PM 78.1 °F - 64.0 °F 62% 29.76 in 10.0 mi Variable 4.6 mph - 0.00 in Rain Light Rain
10:53 PM 73.9 °F - 66.9 °F 79% 29.76 in 9.0 mi Variable 3.5 mph - 0.01 in   Overcast
11:53 PM 72.0 °F - 68.0 °F 87% 29.77 in 10.0 mi Calm Calm - 0.00 in   Overcast